TimeCST,TemperatureF,Dew PointF,Humidity,Sea Level PressureIn,VisibilityMPH,Wind Direction,Wind SpeedMPH,Gust SpeedMPH,PrecipitationIn,Events,Conditions,WindDirDegrees,DateUTC
12:16 AM,23.0,21.2,93,30.27,10.0,NNE,5.8,-,N/A,,Overcast,20,2013-02-08 06:16:00
12:36 AM,23.0,21.2,93,30.26,10.0,NE,3.5,-,N/A,,Overcast,50,2013-02-08 06:36:00
12:56 AM,23.0,21.2,93,30.26,10.0,NE,4.6,-,N/A,,Overcast,40,2013-02-08 06:56:00
1:16 AM,23.0,21.2,93,30.26,10.0,ENE,6.9,-,N/A,,Overcast,70,2013-02-08 07:16:00
1:36 AM,23.0,19.4,86,30.26,10.0,NE,6.9,-,N/A,,Overcast,50,2013-02-08 07:36:00
2:16 AM,23.0,19.4,86,30.27,10.0,NE,5.8,-,N/A,,Overcast,50,2013-02-08 08:16:00
2:36 AM,23.0,19.4,86,30.28,10.0,Calm,Calm,-,N/A,,Overcast,0,2013-02-08 08:36:00
2:56 AM,23.0,19.4,86,30.29,10.0,East,4.6,-,N/A,,Overcast,90,2013-02-08 08:56:00
3:16 AM,23.0,19.4,86,30.28,10.0,East,5.8,-,N/A,,Overcast,80,2013-02-08 09:16:00
3:36 AM,23.0,19.4,86,30.27,10.0,ESE,5.8,-,N/A,,Overcast,110,2013-02-08 09:36:00
3:56 AM,23.0,19.4,86,30.27,10.0,East,3.5,-,N/A,,Overcast,80,2013-02-08 09:56:00
4:17 AM,23.0,19.4,86,30.27,10.0,Calm,Calm,-,N/A,,Overcast,0,2013-02-08 10:17:00
4:36 AM,23.0,19.4,86,30.27,10.0,SE,4.6,-,N/A,,Overcast,140,2013-02-08 10:36:00
4:56 AM,21.2,19.4,93,30.26,10.0,East,5.8,-,N/A,,Overcast,90,2013-02-08 10:56:00
5:17 AM,23.0,19.4,86,30.27,10.0,ESE,3.5,-,N/A,,Overcast,110,2013-02-08 11:17:00
5:36 AM,21.2,19.4,93,30.28,10.0,South,3.5,-,N/A,,Overcast,170,2013-02-08 11:36:00
6:17 AM,21.2,17.6,86,30.28,10.0,ESE,5.8,-,N/A,,Overcast,120,2013-02-08 12:17:00
6:36 AM,21.2,17.6,86,30.27,10.0,SE,6.9,-,N/A,,Overcast,130,2013-02-08 12:36:00
6:56 AM,21.2,19.4,93,30.28,10.0,SSE,6.9,-,N/A,,Overcast,160,2013-02-08 12:56:00
7:17 AM,21.2,19.4,93,30.27,10.0,ESE,6.9,-,N/A,,Overcast,120,2013-02-08 13:17:00
7:36 AM,21.2,19.4,93,30.29,10.0,SSE,5.8,-,N/A,,Overcast,160,2013-02-08 13:36:00
7:56 AM,21.2,19.4,93,30.28,10.0,SE,6.9,-,N/A,,Overcast,130,2013-02-08 13:56:00
8:17 AM,21.2,19.4,93,30.29,10.0,SE,10.4,-,N/A,,Overcast,130,2013-02-08 14:17:00
8:36 AM,21.2,17.6,86,30.29,10.0,SSE,9.2,-,N/A,,Overcast,150,2013-02-08 14:36:00
8:56 AM,21.2,17.6,86,30.29,10.0,South,10.4,-,N/A,,Overcast,170,2013-02-08 14:56:00
9:17 AM,21.2,17.6,86,30.29,10.0,SE,8.1,-,N/A,,Overcast,130,2013-02-08 15:17:00
9:36 AM,23.0,19.4,86,30.29,10.0,SE,10.4,-,N/A,,Overcast,140,2013-02-08 15:36:00
9:56 AM,23.0,19.4,86,30.29,10.0,SSE,8.1,-,N/A,,Overcast,160,2013-02-08 15:56:00
10:16 AM,23.0,19.4,86,30.29,10.0,SSE,8.1,-,N/A,,Overcast,160,2013-02-08 16:16:00
11:01 AM,23.0,19.4,86,30.28,10.0,SSE,9.2,-,N/A,,Overcast,160,2013-02-08 17:01:00
11:16 AM,23.0,19.4,86,30.29,10.0,SSE,10.4,-,N/A,,Overcast,150,2013-02-08 17:16:00
11:36 AM,24.8,19.4,80,30.29,10.0,SSE,9.2,-,N/A,,Overcast,160,2013-02-08 17:36:00
11:56 AM,26.6,21.2,80,30.28,10.0,South,13.8,18.4,N/A,,Overcast,170,2013-02-08 17:56:00
12:16 PM,24.8,21.2,86,30.27,10.0,South,12.7,-,N/A,,Overcast,180,2013-02-08 18:16:00
12:36 PM,24.8,21.2,86,30.26,10.0,South,13.8,-,N/A,,Overcast,180,2013-02-08 18:36:00
12:56 PM,24.8,21.2,86,30.25,7.0,SSE,12.7,-,N/A,,Overcast,160,2013-02-08 18:56:00
1:16 PM,24.8,21.2,86,30.24,7.0,SSE,12.7,-,N/A,,Overcast,160,2013-02-08 19:16:00
1:36 PM,26.6,21.2,80,30.22,10.0,South,16.1,19.6,N/A,,Overcast,180,2013-02-08 19:36:00
1:56 PM,26.6,23.0,86,30.21,7.0,SSE,12.7,-,N/A,,Overcast,150,2013-02-08 19:56:00
2:17 PM,26.6,23.0,86,30.20,10.0,SSE,13.8,-,N/A,,Overcast,160,2013-02-08 20:17:00
2:36 PM,28.4,23.0,80,30.19,10.0,South,17.3,20.7,N/A,,Overcast,170,2013-02-08 20:36:00
2:56 PM,28.4,23.0,80,30.18,10.0,SSE,15.0,20.7,N/A,,Overcast,160,2013-02-08 20:56:00
3:17 PM,30.2,23.0,75,30.16,10.0,SSE,13.8,-,N/A,,Scattered Clouds,160,2013-02-08 21:17:00
3:36 PM,30.2,23.0,75,30.16,10.0,SSE,15.0,18.4,N/A,,Scattered Clouds,150,2013-02-08 21:36:00
3:56 PM,32.0,23.0,69,30.15,10.0,SSE,16.1,21.9,N/A,,Clear,160,2013-02-08 21:56:00
4:16 PM,32.0,24.8,75,30.14,10.0,SSE,12.7,20.7,N/A,,Clear,150,2013-02-08 22:16:00
4:36 PM,32.0,24.8,75,30.13,10.0,SSE,13.8,-,N/A,,Clear,150,2013-02-08 22:36:00
4:57 PM,32.0,24.8,75,30.12,10.0,SSE,13.8,-,N/A,,Clear,150,2013-02-08 22:57:00
5:16 PM,32.0,24.8,75,30.12,10.0,SSE,11.5,-,N/A,,Clear,160,2013-02-08 23:16:00
5:36 PM,32.0,24.8,75,30.12,10.0,SSE,12.7,18.4,N/A,,Clear,150,2013-02-08 23:36:00
5:56 PM,32.0,23.0,69,30.11,10.0,SE,11.5,18.4,N/A,,Clear,140,2013-02-08 23:56:00
6:16 PM,32.0,23.0,69,30.11,10.0,SSE,12.7,-,N/A,,Clear,150,2013-02-09 00:16:00
6:36 PM,30.2,23.0,75,30.11,10.0,SSE,12.7,-,N/A,,Clear,150,2013-02-09 00:36:00
6:56 PM,30.2,23.0,75,30.10,10.0,SSE,16.1,20.7,N/A,,Clear,150,2013-02-09 00:56:00
7:16 PM,30.2,23.0,75,30.09,10.0,SSE,16.1,21.9,N/A,,Clear,150,2013-02-09 01:16:00
7:36 PM,28.4,23.0,80,30.09,10.0,SSE,16.1,21.9,N/A,,Clear,150,2013-02-09 01:36:00
7:56 PM,28.4,23.0,80,30.10,10.0,SSE,12.7,18.4,N/A,,Clear,160,2013-02-09 01:56:00
8:16 PM,28.4,23.0,80,30.10,10.0,SSE,13.8,21.9,N/A,,Clear,150,2013-02-09 02:16:00
8:36 PM,28.4,23.0,80,30.10,10.0,SSE,11.5,-,N/A,,Clear,160,2013-02-09 02:36:00
8:57 PM,26.6,23.0,86,30.10,10.0,SSE,15.0,21.9,N/A,,Clear,150,2013-02-09 02:57:00
9:16 PM,26.6,23.0,86,30.10,10.0,SSE,11.5,17.3,N/A,,Clear,150,2013-02-09 03:16:00
9:36 PM,26.6,23.0,86,30.10,10.0,SSE,15.0,23.0,N/A,,Clear,160,2013-02-09 03:36:00
9:57 PM,26.6,23.0,86,30.11,10.0,SSE,12.7,-,N/A,,Scattered Clouds,160,2013-02-09 03:57:00
10:16 PM,26.6,23.0,86,30.10,7.0,SSE,16.1,20.7,N/A,,Mostly Cloudy,160,2013-02-09 04:16:00
10:36 PM,26.6,23.0,86,30.10,7.0,SSE,13.8,23.0,N/A,,Mostly Cloudy,160,2013-02-09 04:36:00
10:57 PM,26.6,23.0,86,30.10,7.0,South,13.8,-,N/A,,Overcast,170,2013-02-09 04:57:00
11:16 PM,26.6,23.0,86,30.10,7.0,SSE,15.0,21.9,N/A,,Overcast,160,2013-02-09 05:16:00
11:36 PM,26.6,23.0,86,30.10,7.0,SSE,10.4,18.4,N/A,,Overcast,160,2013-02-09 05:36:00
11:56 PM,28.4,24.8,86,30.08,7.0,SSE,15.0,20.7,N/A,,Overcast,160,2013-02-09 05:56:00